Powrót do katalogu

NIMBUS 2 DEB

AktywnyLEO
NORAD 59976·DEBRIS·🇺🇸 United States

Wystrzelony May 15, 1966 z Vandenberg Space Force Base

Loading…

Następne Przeloty (najbliższe 24 godziny)

TLE

ŚwieżeSource: Space-Track

Epoka: Sep 13, 2026, 09:04 UTC

1 59976U 66040CF  26256.37816228  .00001893  00000-0  27124-2 0  9999
2 59976 100.6123 302.9715 0039999 284.0537  88.4433 13.57178698685943

Śledź NIMBUS 2 DEB w czasie rzeczywistym z AllMySat

Download on the App Store